�������l�o���
Date,Time,MP-1(��Sv/h),MP-2(��Sv/h),MP-3(��Sv/h),MP-4(��Sv/h),MP-5(��Sv/h),MP-6(��Sv/h),MP-7(��Sv/h),MP-8(��Sv/h),����,����(m/s),���J
2016/09/14,00:00,1.178,1.831,1.522,1.985,1.331,0.584,1.055,0.958,�k�k��,7.4,��
2016/09/14,00:10,1.178,1.832,1.524,1.988,1.330,0.586,1.055,0.959,�k�k��,7.7,��
2016/09/14,00:20,1.180,1.833,1.523,1.993,1.335,0.585,1.056,0.959,�k�k��,8.2,��
2016/09/14,00:30,1.179,1.833,1.524,1.995,1.335,0.584,1.056,0.959,�k�k��,7.4,��
2016/09/14,00:40,1.180,1.833,1.527,1.994,1.334,0.586,1.055,0.958,�k�k��,7.7,��
2016/09/14,00:50,1.182,1.838,1.529,1.994,1.337,0.587,1.058,0.958,�k�k��,7.1,��
2016/09/14,01:00,1.184,1.838,1.530,1.996,1.338,0.587,1.057,0.958,�k�k��,7.7,��
2016/09/14,01:10,1.188,1.840,1.529,1.999,1.339,0.586,1.059,0.960,�k�k��,6.9,��
2016/09/14,01:20,1.188,1.841,1.528,2.000,1.341,0.588,1.060,0.961,�k�k��,8.2,��
2016/09/14,01:30,1.185,1.840,1.532,2.001,1.339,0.588,1.060,0.962,�k�k��,8.2,��
2016/09/14,01:40,1.187,1.839,1.532,2.001,1.341,0.587,1.059,0.961,�k�k��,7.7,��
2016/09/14,01:50,1.186,1.842,1.535,2.006,1.340,0.587,1.060,0.963,�k�k��,7.4,��
2016/09/14,02:00,1.186,1.841,1.535,2.000,1.345,0.587,1.061,0.961,�k�k��,7.5,��
2016/09/14,02:10,1.189,1.845,1.532,2.005,1.346,0.587,1.062,0.962,�k�k��,6.9,��
2016/09/14,02:20,1.190,1.843,1.537,2.003,1.347,0.587,1.061,0.963,�k�k��,6.6,��
2016/09/14,02:30,1.192,1.848,1.536,2.004,1.346,0.588,1.060,0.961,�k�k��,6.6,��
2016/09/14,02:40,1.190,1.845,1.537,2.006,1.349,0.587,1.062,0.964,�k�k��,7.4,��
2016/09/14,02:50,1.192,1.844,1.536,2.009,1.351,0.588,1.062,0.962,�k�k��,6.6,��
2016/09/14,03:00,1.188,1.846,1.539,2.008,1.350,0.588,1.063,0.962,�k�k��,6.9,��
2016/09/14,03:10,1.193,1.847,1.537,2.009,1.351,0.586,1.063,0.963,�k�k��,6.7,��
2016/09/14,03:20,1.190,1.845,1.537,2.010,1.351,0.587,1.063,0.963,�k�k��,6.4,��
2016/09/14,03:30,1.190,1.848,1.539,2.013,1.353,0.588,1.063,0.962,�k�k��,6.4,��
2016/09/14,03:40,1.191,1.851,1.541,2.011,1.353,0.588,1.065,0.962,�k�k��,6.9,��
2016/09/14,03:50,1.192,1.849,1.544,2.011,1.356,0.587,1.066,0.964,�k�k��,5.5,��
2016/09/14,04:00,1.191,1.851,1.541,2.014,1.353,0.590,1.066,0.964,�k�k��,5.5,��
2016/09/14,04:10,1.193,1.852,1.542,2.014,1.356,0.589,1.066,0.962,�k�k��,6.0,��
2016/09/14,04:20,1.193,1.851,1.541,2.013,1.356,0.590,1.064,0.965,�k�k��,7.5,��
2016/09/14,04:30,1.193,1.852,1.542,2.012,1.357,0.590,1.067,0.965,�k�k��,7.8,��
2016/09/14,04:40,1.195,1.852,1.543,2.014,1.358,0.588,1.065,0.965,�k�k��,7.1,��
2016/09/14,04:50,1.195,1.851,1.545,2.014,1.358,0.588,1.068,0.964,�k�k��,7.4,��
2016/09/14,05:00,1.195,1.855,1.542,2.016,1.360,0.588,1.065,0.966,�k�k��,7.5,��
2016/09/14,05:10,1.194,1.853,1.546,2.016,1.359,0.589,1.066,0.964,�k�k��,7.1,��
2016/09/14,05:20,1.194,1.853,1.546,2.014,1.357,0.589,1.067,0.966,�k�k��,6.4,��
2016/09/14,05:30,1.196,1.852,1.545,2.013,1.359,0.590,1.068,0.965,�k�k��,6.6,��
2016/09/14,05:40,1.194,1.851,1.545,2.017,1.359,0.589,1.067,0.966,�k�k��,6.6,��
2016/09/14,05:50,1.196,1.855,1.544,2.014,1.362,0.588,1.068,0.966,�k�k��,6.7,��
2016/09/14,06:00,1.193,1.854,1.546,2.019,1.361,0.590,1.069,0.967,�k�k��,6.7,��
2016/09/14,06:10,1.197,1.854,1.551,2.020,1.361,0.591,1.070,0.963,�k�k��,6.0,��
2016/09/14,06:20,1.198,1.853,1.546,2.018,1.362,0.590,1.068,0.967,�k�k��,5.5,��
2016/09/14,06:30,1.195,1.852,1.548,2.020,1.363,0.589,1.070,0.965,�k�k��,6.0,��
2016/09/14,06:40,1.197,1.858,1.546,2.021,1.363,0.588,1.070,0.964,�k�k��,6.0,��
2016/09/14,06:50,1.196,1.856,1.534,2.021,1.365,0.589,1.069,0.966,�k�k��,6.0,��
2016/09/14,07:00,1.195,1.856,1.542,2.022,1.366,0.590,1.069,0.965,�k�k��,7.1,��
2016/09/14,07:10,1.197,1.858,1.544,2.022,1.367,0.589,1.070,0.961,�k�k��,6.6,��
2016/09/14,07:20,1.196,1.857,1.536,2.023,1.366,0.590,1.070,0.966,�k�k��,6.3,��
2016/09/14,07:30,1.200,1.856,1.535,2.023,1.367,0.589,1.071,0.965,�k�k��,6.1,��
2016/09/14,07:40,1.197,1.857,1.534,2.021,1.368,0.589,1.071,0.966,�k�k��,6.0,��
2016/09/14,07:50,1.197,1.859,1.525,2.024,1.368,0.589,1.071,0.966,�k�k��,5.3,��
2016/09/14,08:00,1.197,1.858,1.500,2.024,1.368,0.588,1.071,0.967,�k�k��,6.3,��
2016/09/14,08:10,1.198,1.858,1.484,2.025,1.367,0.588,1.073,0.965,�k�k��,5.6,��
2016/09/14,08:20,1.197,1.858,1.468,2.027,1.368,0.590,1.073,0.964,�k�k��,6.3,��
2016/09/14,08:30,1.196,1.859,1.433,2.026,1.369,0.589,1.073,0.966,�k�k��,5.0,��
2016/09/14,08:40,1.197,1.858,1.418,2.027,1.371,0.590,1.074,0.966,�k�k��,4.9,��
2016/09/14,08:50,1.197,1.861,1.413,2.029,1.369,0.590,1.073,0.963,�k�k��,5.5,��
2016/09/14,09:00,1.198,1.860,1.414,2.031,1.372,0.590,1.071,0.966,�k,4.5,��
2016/09/14,09:10,1.198,1.858,1.411,2.030,1.372,0.589,1.073,0.965,�k�k��,5.2,��
2016/09/14,09:20,1.198,1.862,1.406,2.030,1.375,0.590,1.074,0.966,�k,3.9,��
2016/09/14,09:30,1.199,1.860,1.388,2.030,1.374,0.590,1.073,0.966,�k,4.1,��
2016/09/14,09:40,1.197,1.862,1.370,2.029,1.373,0.590,1.072,0.967,�k�k��,3.8,��
2016/09/14,09:50,1.199,1.864,1.378,2.030,1.375,0.592,1.075,0.966,�k,4.2,��
2016/09/14,10:00,1.199,1.864,1.344,2.031,1.377,0.590,1.074,0.967,�k�k��,4.4,��
2016/09/14,10:10,1.195,1.865,1.325,2.033,1.377,0.591,1.078,0.965,�k,3.4,��
2016/09/14,10:20,1.197,1.865,1.315,2.031,1.375,0.591,1.076,0.966,�k,3.5,��
2016/09/14,10:30,1.199,1.860,1.313,2.032,1.379,0.591,1.078,0.968,�k,2.5,��
2016/09/14,10:40,1.200,1.866,1.316,2.034,1.379,0.591,1.078,0.968,�k,3.0,��
2016/09/14,10:50,1.198,1.865,1.314,2.035,1.382,0.592,1.077,0.968,�k,4.4,��
2016/09/14,11:00,1.200,1.868,1.323,2.033,1.381,0.593,1.077,0.968,�k�k��,4.9,��
2016/09/14,11:10,1.198,1.868,1.324,2.037,1.380,0.591,1.078,0.967,�k�k��,4.1,��
2016/09/14,11:20,1.196,1.867,1.327,2.034,1.383,0.592,1.078,0.968,�k,4.5,��
2016/09/14,11:30,1.196,1.869,1.331,2.035,1.384,0.591,1.077,0.968,�k,4.9,��
2016/09/14,11:40,1.197,1.863,1.342,2.036,1.381,0.593,1.080,0.967,�k,4.7,��
2016/09/14,11:50,1.197,1.870,1.349,2.037,1.384,0.592,1.080,0.966,�k,5.0,��
2016/09/14,12:00,1.199,1.871,1.334,2.037,1.386,0.593,1.078,0.967,�k�k��,4.5,��
2016/09/14,12:10,1.201,1.874,1.349,2.036,1.384,0.593,1.078,0.969,�k,5.0,��
2016/09/14,12:20,1.199,1.875,1.338,2.038,1.385,0.593,1.080,0.968,�k,4.9,��
2016/09/14,12:30,1.202,1.875,1.347,2.038,1.386,0.593,1.079,0.968,�k,4.7,��
2016/09/14,12:40,1.201,1.873,1.332,2.035,1.389,0.594,1.077,0.970,�k,4.9,��
2016/09/14,12:50,1.202,1.875,1.346,2.039,1.389,0.593,1.078,0.969,�k,6.0,��
2016/09/14,13:00,1.203,1.877,1.346,2.042,1.389,0.593,1.080,0.971,�k,4.9,��
2016/09/14,13:10,1.204,1.878,1.336,2.040,1.391,0.593,1.081,0.969,�k,4.9,��
2016/09/14,13:20,1.200,1.879,1.343,2.041,1.392,0.592,1.080,0.972,�k,5.2,��
2016/09/14,13:30,1.205,1.880,1.361,2.040,1.392,0.593,1.080,0.972,�k,4.2,��
2016/09/14,13:40,1.205,1.881,1.359,2.042,1.392,0.594,1.082,0.971,�k,4.5,��
2016/09/14,13:50,1.205,1.882,1.361,2.040,1.395,0.592,1.080,0.970,�k,4.6,��
2016/09/14,14:00,1.204,1.880,1.364,2.043,1.395,0.594,1.083,0.970,�k,4.7,��
2016/09/14,14:10,1.208,1.880,1.360,2.044,1.393,0.593,1.083,0.971,�k�k��,5.2,��
2016/09/14,14:20,1.207,1.884,1.363,2.045,1.394,0.594,1.080,0.971,�k�k��,4.6,��
2016/09/14,14:30,1.203,1.883,1.363,2.045,1.396,0.596,1.082,0.970,�k�k��,4.5,��
2016/09/14,14:40,1.207,1.880,1.364,2.046,1.396,0.594,1.083,0.972,�k�k��,4.9,��
2016/09/14,14:50,1.206,1.883,1.366,2.043,1.395,0.593,1.082,0.971,�k�k��,4.1,��
2016/09/14,15:00,1.207,1.883,1.364,2.045,1.397,0.595,1.082,0.970,�k�k��,4.1,��
2016/09/14,15:10,1.207,1.883,1.362,2.045,1.398,0.595,1.083,0.972,�k��,3.9,��
2016/09/14,15:20,1.207,1.886,1.366,2.046,1.398,0.594,1.083,0.970,�k��,3.5,��
2016/09/14,15:30,1.205,1.884,1.366,2.044,1.396,0.595,1.082,0.970,�k�k��,3.6,��
2016/09/14,15:40,1.208,1.884,1.364,2.045,1.399,0.593,1.082,0.971,�k�k��,3.3,��
2016/09/14,15:50,1.207,1.886,1.366,2.046,1.397,0.591,1.083,0.970,�k�k��,2.8,��
2016/09/14,16:00,1.205,1.883,1.370,2.048,1.401,0.593,1.084,0.971,�k��,2.7,��
2016/09/14,16:10,1.206,1.888,1.366,2.050,1.401,0.594,1.083,0.973,�k��,2.1,��
2016/09/14,16:20,1.206,1.887,1.368,2.048,1.400,0.594,1.084,0.971,���k��,1.7,��
2016/09/14,16:30,1.204,1.886,1.368,2.051,1.401,0.596,1.085,0.971,�k��,1.5,��
2016/09/14,16:40,1.208,1.884,1.368,2.049,1.399,0.595,1.082,0.975,���k��,1.8,��
2016/09/14,16:50,1.209,1.886,1.369,2.054,1.403,0.596,1.085,0.973,���k��,2.1,��
2016/09/14,17:00,1.207,1.888,1.370,2.047,1.401,0.596,1.084,0.972,�k��,1.4,��
2016/09/14,17:10,1.207,1.891,1.371,2.052,1.403,0.595,1.083,0.973,�k��,1.2,��
2016/09/14,17:20,1.209,1.889,1.370,2.051,1.404,0.595,1.082,0.974,���k��,1.4,��
2016/09/14,17:30,1.209,1.891,1.370,2.050,1.405,0.596,1.082,0.974,���k��,0.5,��
2016/09/14,17:40,1.208,1.889,1.372,2.051,1.405,0.595,1.082,0.972,��,0.6,��
2016/09/14,17:50,1.210,1.892,1.370,2.050,1.403,0.594,1.084,0.975,��,0.8,��
2016/09/14,18:00,1.209,1.892,1.373,2.050,1.407,0.596,1.085,0.975,���k��,1.0,��
2016/09/14,18:10,1.209,1.891,1.370,2.049,1.405,0.597,1.083,0.973,��,1.2,��
2016/09/14,18:20,1.210,1.892,1.371,2.048,1.405,0.597,1.082,0.972,��,1.1,��
2016/09/14,18:30,1.209,1.890,1.371,2.053,1.404,0.596,1.083,0.973,-,CALM,��
2016/09/14,18:40,1.210,1.892,1.372,2.049,1.405,0.596,1.086,0.975,��,1.0,��
2016/09/14,18:50,1.209,1.890,1.370,2.051,1.406,0.597,1.082,0.976,��,1.4,��
2016/09/14,19:00,1.211,1.891,1.371,2.053,1.405,0.595,1.081,0.976,���쓌,1.4,��
2016/09/14,19:10,1.212,1.891,1.370,2.052,1.407,0.596,1.085,0.973,��쐼,1.8,��
2016/09/14,19:20,1.212,1.893,1.371,2.055,1.404,0.596,1.085,0.974,��쐼,1.4,��
2016/09/14,19:30,1.210,1.891,1.373,2.052,1.405,0.598,1.084,0.975,��쐼,0.8,��
2016/09/14,19:40,1.212,1.893,1.372,2.053,1.408,0.597,1.084,0.975,-,CALM,��
2016/09/14,19:50,1.209,1.894,1.372,2.052,1.408,0.595,1.083,0.976,��,0.7,��
2016/09/14,20:00,1.209,1.893,1.374,2.055,1.407,0.599,1.085,0.974,���쐼,1.1,��
2016/09/14,20:10,1.211,1.890,1.373,2.054,1.407,0.598,1.083,0.974,�쐼,0.6,��
2016/09/14,20:20,1.210,1.892,1.373,2.054,1.409,0.598,1.084,0.976,-,CALM,��
2016/09/14,20:30,1.212,1.890,1.369,2.053,1.405,0.597,1.085,0.974,-,CALM,��
2016/09/14,20:40,1.209,1.892,1.370,2.056,1.405,0.597,1.083,0.974,�k,0.6,��
2016/09/14,20:50,1.207,1.893,1.370,2.052,1.408,0.598,1.085,0.975,�k��,1.2,��
2016/09/14,21:00,1.210,1.893,1.372,2.052,1.407,0.598,1.084,0.976,�k��,0.7,��
2016/09/14,21:10,1.211,1.893,1.373,2.054,1.410,0.598,1.083,0.974,�k��,1.2,��
2016/09/14,21:20,1.209,1.891,1.374,2.055,1.407,0.597,1.084,0.976,�k�k��,1.6,��
2016/09/14,21:30,1.213,1.892,1.372,2.052,1.411,0.598,1.084,0.975,�k�k��,1.5,��
2016/09/14,21:40,1.211,1.891,1.373,2.053,1.405,0.596,1.085,0.975,-,CALM,��
2016/09/14,21:50,1.212,1.892,1.369,2.055,1.410,0.599,1.083,0.974,�쐼,0.8,��
2016/09/14,22:00,1.210,1.894,1.375,2.055,1.410,0.599,1.083,0.975,��쐼,1.4,��
2016/09/14,22:10,1.209,1.894,1.373,2.054,1.408,0.598,1.085,0.975,��쐼,1.1,��
2016/09/14,22:20,1.213,1.894,1.372,2.052,1.410,0.596,1.086,0.976,��,1.5,��
2016/09/14,22:30,1.209,1.892,1.372,2.054,1.412,0.596,1.084,0.976,��쐼,1.5,��
2016/09/14,22:40,1.209,1.896,1.374,2.056,1.411,0.598,1.085,0.975,�쐼,1.1,��
2016/09/14,22:50,1.211,1.896,1.372,2.057,1.411,0.599,1.083,0.976,��,1.7,��
2016/09/14,23:00,1.209,1.892,1.374,2.056,1.408,0.598,1.083,0.975,��,1.9,��
2016/09/14,23:10,1.214,1.894,1.371,2.055,1.408,0.598,1.087,0.974,��,1.3,��
2016/09/14,23:20,1.212,1.895,1.373,2.055,1.411,0.599,1.083,0.977,�쐼,1.3,��
2016/09/14,23:30,1.211,1.896,1.372,2.055,1.410,0.599,1.085,0.976,�쐼,1.1,��
2016/09/14,23:40,1.212,1.894,1.375,2.056,1.411,0.597,1.086,0.975,��,0.9,��
2016/09/14,23:50,1.212,1.892,1.376,2.055,1.410,0.599,1.084,0.976,-,CALM,��
